Voltar ao catálogo

CZ-6A DEB

AtivoSSO
NORAD 56255·DEBRIS·🇨🇳 China

Lançado Nov 11, 2022 de Taiyuan Satellite Launch Center

Loading…

Próximas Passagens (próximas 24 horas)

TLE

EnvelhecendoSource: Space-Track

Época: Sep 9, 2026, 15:13 UTC

1 56255U 22151ABX 26252.63457002  .00002608  00000-0  16295-2 0  9999
2 56255  98.9290 223.7486 0134186 179.3824 180.7531 14.01226742175839

Acompanhe CZ-6A DEB em tempo real com AllMySat

Download on the App Store